Stations météo

Publicité
Rimini, Italie (16149): Température de l'air & dewpoint: 10.01.2018 20:00:00 - 16.01.2018 20:00:00 (CET)Rimini, Italie (16149): Vitesse du vent: 10.01.2018 20:00:00 - 16.01.2018 20:00:00 (CET)Rimini, Italie (16149): Direction du vent: 10.01.2018 20:00:00 - 16.01.2018 20:00:00 (CET)Rimini, Italie (16149): reduced air pressure: 10.01.2018 20:00:00 - 16.01.2018 20:00:00 (CET)Rimini, Italie (16149): visibility: 10.01.2018 20:00:00 - 16.01.2018 20:00:00 (CET)
Date & Time tt [°C] td [°C] ff [km/h] ff [knt] dd ppp [hPa] vv [km]
16.01.2018 20:00:00 7,0 6,0 0 0 N - 2,5
16.01.2018 19:00:00 7,2 6,5 4 2 NW 1006,9 2,3
16.01.2018 18:00:00 7,0 6,0 2 1 WNW - 2,0
16.01.2018 17:00:00 7,0 6,0 2 1 WNW - 1,8
16.01.2018 16:00:00 7,8 6,9 11 6 NW 1007,9 2,3
16.01.2018 15:00:00 8,0 7,0 16 9 NNW - 3,8
16.01.2018 14:00:00 8,0 6,0 5 3 N - 7
16.01.2018 13:00:00 8,0 5,8 5 3 N 1010,0 8
16.01.2018 12:00:00 8,0 6,0 8 4 NW - 8
16.01.2018 11:00:00 8,0 6,0 4 2 N - 8
16.01.2018 10:00:00 6,2 5,3 0 0 N 1011,8 8
16.01.2018 09:00:00 6,0 5,0 13 7 WNW - 7
16.01.2018 08:00:00 7,0 5,0 13 7 WNW - 8
16.01.2018 07:00:00 10,0 6,0 8 4 W 1011,8 10
16.01.2018 06:00:00 10,0 6,0 9 5 S - 10
16.01.2018 05:00:00 9,0 5,0 11 6 SSE - 10
16.01.2018 04:00:00 10,0 6,0 9 5 SSE 1014,4 10
16.01.2018 03:00:00 9,0 6,0 8 4 S - 10
16.01.2018 02:00:00 9,0 6,0 9 5 S - 10
16.01.2018 01:00:00 8,4 6,0 8 4 S 1017,4 10
16.01.2018 00:00:00 5,0 5,0 5 3 SSE - 10
15.01.2018 23:00:00 7,0 6,0 0 0 N - 10
15.01.2018 22:00:00 7,0 5,8 8 4 E 1019,8 8
15.01.2018 21:00:00 6,0 6,0 2 1 S - 7
15.01.2018 20:00:00 6,0 6,0 5 3 SSE - 7
15.01.2018 19:00:00 7,6 6,2 2 1 SSW 1021,4 7
15.01.2018 18:00:00 8,0 6,0 0 0 N - 8
15.01.2018 17:00:00 9,0 7,0 0 0 N - 8
15.01.2018 16:00:00 8,8 5,4 8 4 N 1021,9 8
15.01.2018 15:00:00 9,0 5,0 9 5 NNE - 8
15.01.2018 14:00:00 9,0 5,0 9 5 N - 8
15.01.2018 13:00:00 9,8 5,4 9 5 N 1024,3 8
15.01.2018 12:00:00 8,0 6,0 0 0 N - 6
15.01.2018 11:00:00 7,0 5,0 5 3 W - 6
15.01.2018 10:00:00 5,4 4,0 8 4 W 1024,6 7
15.01.2018 09:00:00 5,0 4,0 8 4 WNW - 7
15.01.2018 08:00:00 4,0 4,0 8 4 W - 7
15.01.2018 07:00:00 5,8 4,6 5 3 W 1023,3 7
15.01.2018 06:00:00 6,0 5,0 11 6 W - 7
15.01.2018 05:00:00 6,0 5,0 8 4 W - 7
15.01.2018 04:00:00 6,8 5,1 8 4 W 1023,2 7
15.01.2018 03:00:00 7,0 5,0 8 4 W - 6
15.01.2018 02:00:00 7,0 5,0 8 4 W - 6
15.01.2018 01:00:00 6,0 4,8 5 3 W 1023,6 5
15.01.2018 00:00:00 6,0 5,0 5 3 W - 6
14.01.2018 23:00:00 6,0 5,0 0 0 N - 6
14.01.2018 22:00:00 6,4 4,6 0 0 N 1022,7 10
14.01.2018 21:00:00 7,0 5,0 0 0 N - 10
14.01.2018 20:00:00 7,0 5,0 2 1 SW - 10
14.01.2018 19:00:00 7,0 5,5 4 2 WSW 1021,7 8
14.01.2018 18:00:00 7,0 5,0 4 2 W - 7
14.01.2018 17:00:00 7,0 5,0 4 2 WNW - 5
14.01.2018 16:00:00 7,8 5,4 4 2 WNW 1021,3 6
14.01.2018 15:00:00 8,0 5,0 8 4 W - 8
14.01.2018 14:00:00 8,0 5,0 11 6 WNW - 8
14.01.2018 13:00:00 8,0 4,9 13 7 WNW 1021,5 8
14.01.2018 12:00:00 8,0 5,0 13 7 WNW - 8
14.01.2018 11:00:00 7,0 5,0 11 6 W - 8
14.01.2018 10:00:00 6,2 5,2 4 2 W 1021,6 7
14.01.2018 09:00:00 6,0 5,0 8 4 W - 7
14.01.2018 08:00:00 6,0 5,0 8 4 W - 7
14.01.2018 07:00:00 6,8 4,6 11 6 W 1020,7 10
14.01.2018 06:00:00 6,0 5,0 13 7 W - 10
14.01.2018 05:00:00 6,0 5,0 9 5 W - 10
14.01.2018 04:00:00 6,2 4,8 9 5 W 1020,6 10
14.01.2018 03:00:00 6,0 5,0 11 6 W - 10
14.01.2018 02:00:00 6,0 5,0 9 5 W - 10
14.01.2018 01:00:00 6,8 5,1 9 5 W 1020,7 10
14.01.2018 00:00:00 7,0 5,0 11 6 W - 10
13.01.2018 23:00:00 7,0 5,0 13 7 W - 8
13.01.2018 22:00:00 7,2 5,5 9 5 W 1020,5 7
13.01.2018 21:00:00 7,0 5,0 13 7 W - 10
13.01.2018 20:00:00 7,0 5,0 16 9 W - 10
13.01.2018 19:00:00 8,0 5,6 13 7 W 1020,2 10
13.01.2018 18:00:00 8,0 6,0 13 7 W - 10
13.01.2018 17:00:00 8,0 7,0 16 9 W - 10
13.01.2018 16:00:00 8,8 7,1 15 8 W 1020,5 10
13.01.2018 15:00:00 9,0 7,0 13 7 W - 10
13.01.2018 14:00:00 9,0 6,0 15 8 WNW - 10
13.01.2018 13:00:00 8,8 6,3 13 7 WNW 1020,9 10
13.01.2018 12:00:00 8,0 6,0 15 8 W - 10
13.01.2018 11:00:00 7,0 5,0 9 5 WNW - 10
13.01.2018 10:00:00 6,8 4,6 18 10 W 1021,7 10
13.01.2018 09:00:00 7,0 5,0 18 10 W - 10
13.01.2018 08:00:00 6,0 4,0 18 10 W - 10
13.01.2018 07:00:00 5,2 3,9 15 8 WNW 1021,8 10
13.01.2018 06:00:00 6,0 5,0 13 7 WNW - 10
13.01.2018 05:00:00 6,0 5,0 15 8 W - 10
13.01.2018 04:00:00 6,6 5,9 18 10 W 1021,8 6
13.01.2018 03:00:00 7,0 5,0 13 7 WNW - 7
13.01.2018 02:00:00 7,0 5,0 9 5 WNW - 10
13.01.2018 01:00:00 6,8 5,0 11 6 WNW 1021,8 10
13.01.2018 00:00:00 7,0 6,0 13 7 WNW - 10
12.01.2018 23:00:00 7,0 6,0 13 7 WNW - 10
12.01.2018 22:00:00 8,0 5,6 9 5 NW 1021,3 10
12.01.2018 21:00:00 8,0 5,0 11 6 WNW - 10
12.01.2018 20:00:00 8,0 5,0 15 8 WNW - 10
12.01.2018 19:00:00 10,0 4,0 9 5 NW 1019,8 10
12.01.2018 18:00:00 10,0 5,0 13 7 NW - 10
12.01.2018 17:00:00 10,0 6,0 15 8 NW - 10
12.01.2018 16:00:00 10,0 6,0 13 7 NW 1018,8 10
12.01.2018 15:00:00 10,0 7,0 11 6 NW - 10
12.01.2018 14:00:00 11,0 6,0 9 5 NW - 10
12.01.2018 13:00:00 10,8 5,4 13 7 N 1018,7 10
12.01.2018 12:00:00 11,0 5,0 16 9 N - 10
12.01.2018 11:00:00 11,0 5,0 16 9 NNE - 10
12.01.2018 10:00:00 10,0 6,7 18 10 NE 1017,8 10
12.01.2018 09:00:00 9,0 6,0 0 0 N - 10
12.01.2018 08:00:00 7,0 6,0 8 4 WSW - 10
12.01.2018 07:00:00 8,8 6,3 9 5 W 1016,5 10
12.01.2018 06:00:00 9,0 7,0 2 1 SW - 10
12.01.2018 05:00:00 9,0 7,0 4 2 WSW - 10
12.01.2018 04:00:00 8,0 6,6 9 5 W 1015,5 8
12.01.2018 03:00:00 8,0 7,0 11 6 WNW - 6
12.01.2018 02:00:00 8,0 7,0 11 6 WNW - 6
12.01.2018 01:00:00 8,0 6,9 16 9 WNW 1014,8 6
12.01.2018 00:00:00 8,0 7,0 13 7 WNW - 6
11.01.2018 23:00:00 8,0 7,0 13 7 W - 5
11.01.2018 22:00:00 8,6 7,7 9 5 WNW 1013,6 6
11.01.2018 21:00:00 8,0 8,0 11 6 WNW - 4,5
11.01.2018 20:00:00 9,0 8,0 8 4 W - 4,0
11.01.2018 19:00:00 9,0 8,1 4 2 WSW 1012,6 3,0
11.01.2018 18:00:00 9,0 8,0 4 2 WSW - 2,0
11.01.2018 17:00:00 9,0 8,0 8 4 W - 2,0
11.01.2018 16:00:00 9,8 8,1 8 4 W 1012,2 2,5
11.01.2018 15:00:00 10,0 8,0 8 4 WNW - 3,2
11.01.2018 14:00:00 10,0 8,0 9 5 WNW - 3,8
11.01.2018 13:00:00 9,6 7,7 9 5 NW 1012,4 3,2
11.01.2018 12:00:00 9,0 8,0 8 4 WNW - 2,5
11.01.2018 11:00:00 9,0 7,0 9 5 WNW - 2,0
11.01.2018 10:00:00 8,0 7,1 9 5 WNW 1012,5 1,8
11.01.2018 09:00:00 8,0 7,0 4 2 WNW - 1,5
11.01.2018 08:00:00 6,0 5,0 2 1 SW - 1,1
11.01.2018 07:00:00 6,6 6,3 5 3 W 1012,4 2,0
11.01.2018 06:00:00 7,0 6,0 4 2 W - 10
11.01.2018 05:00:00 7,0 6,0 4 2 W - 10
11.01.2018 04:00:00 5,0 4,4 4 2 NW 1012,3 10
11.01.2018 03:00:00 5,0 4,0 0 0 N - 10
11.01.2018 02:00:00 6,0 4,0 0 0 N - 10
11.01.2018 01:00:00 6,2 4,7 5 3 S 1013,3 10
11.01.2018 00:00:00 6,0 5,0 8 4 SSW - 10
10.01.2018 23:00:00 6,0 5,0 0 0 N - 10
10.01.2018 22:00:00 5,8 5,2 4 2 SW 1014,3 10
10.01.2018 21:00:00 6,0 5,0 2 1 SSW - 10
10.01.2018 20:00:00 7,0 6,0 2 1 SSW - 10

tt = Température de l'air
td = dewpoint
ff = Vitesse du vent
dd = Direction du vent
ppp = reduced air pressure
vv = visibility

stations d'obs. à proximité